Hourly Data Report for October 01, 2017

All times are specified in Local Standard Time (LST). Add 1 hour to adjust for Daylight Saving Time where and when it is observed.

PARRY SOUND CCG
ONTARIO

45°20'39.000" N
80°02'39.000" W
176.30 m
6116257
71172
XPC

Download Data

Hourly Data (October 2017)
Hourly Data Report for October 1, 2017
Temp Definition
°C
Dew Point Temp Definition
°C
Rel Hum Definition
%
Wind Dir Definition
10's deg

Wind Spd Definition
km/h
Visibility Definition
km
Stn Press Definition
kPa
Hmdx Definition


Wind Chill Definition


Weather Definition


TIME
00:00 4.9 4.1 94 LegendMM LegendMM   100.67     LegendNANA
01:00 4.5 3.8 95 LegendMM LegendMM   100.66     LegendNANA
02:00 4.5 3.8 95 LegendMM LegendMM   100.66     LegendNANA
03:00 4.2 3.5 95 LegendMM LegendMM   100.64     LegendNANA
04:00 4.3 3.6 95 LegendMM LegendMM   100.63     LegendNANA
05:00 4.2 3.5 95 LegendMM LegendMM   100.67     LegendNANA
06:00 3.7 3.1 95 LegendMM LegendMM   100.67     LegendNANA
07:00 4.4 3.8 96 LegendMM LegendMM   100.69     LegendNANA
08:00 6.8 6.1 96 LegendMM LegendMM   100.71     LegendNANA
09:00 11.1 8.3 83 LegendMM LegendMM   100.70     LegendNANA
10:00 13.6 8.3 70 LegendMM LegendMM   100.68     LegendNANA
11:00 14.2 8.0 66 LegendMM LegendMM   100.65     LegendNANA
12:00 14.3 7.2 63 LegendMM LegendMM   100.60     LegendNANA
13:00 15.4 7.8 60 LegendMM LegendMM   100.56     LegendNANA
14:00 15.9 7.2 56 LegendMM LegendMM   100.50     LegendNANA
15:00 16.0 5.3 49 LegendMM LegendMM   100.43     LegendNANA
16:00 15.5 3.5 45 LegendMM LegendMM   100.40     LegendNANA
17:00 15.2 0.5 37 LegendMM LegendMM   100.41     LegendNANA
18:00 11.6 4.0 60 LegendMM LegendMM   100.37     LegendNANA
19:00 8.9 5.5 79 LegendMM LegendMM   100.37     LegendNANA
20:00 7.5 5.3 86 LegendMM LegendMM   100.40     LegendNANA
21:00 7.1 5.9 92 LegendMM LegendMM   100.39     LegendNANA
22:00 6.4 5.3 93 LegendMM LegendMM   100.42     LegendNANA
23:00 6.1 5.1 93 LegendMM LegendMM   100.47     LegendNANA

Notes on Data Quality.

Legend

  • E = Estimated
  • M = Missing
  • NA = Not Available
  • ‡ = Partner data that is not subject to review by the National Climate Archives
Date modified: